Vorticity
9 8 -11 15 10 8 4 5 5 7 5 16 7 5 5 6 19 20 14 14 7 9 10 12 15 14 14 14 12 13 9 10 7 16 7 7 9 5 4 4 3 3 1 1
7 -2 13 9 10 6 7 6 5 15 13 -2 6 3 24 39 1 3 13 -5 10 15 10 12 11 9 8 13 14 13 11 11 12 8 14 6 10 10 5 4 4 4 3 -1
11 -15 -8 21 14 14 7 4 13 7 12 7 26 49 11 -5 -5 18 8 -4 14 9 9 6 8 10 14 15 14 11 11 12 9 12 13 16 13 6 4 7 5 2 -0 3
26 17 5 5 2 1 4 15 9 8 12 7 -15 5 2 -13 18 3 -5 18 5 1 13 10 12 10 4 6 8 6 18 4 12 19 11 3 11 13 11 -2 -2 10 0 2
-2 9 21 22 26 27 13 19 11 10 8 18 29 12 27 28 4 -0 16 13 8 14 16 27 18 -1 14 1 9 -15 10 22 6 5 14 10 6 9 6 7 15 1 7 -3
3 -12 -6 7 -0 8 6 6 4 10 14 29 38 -8 33 7 9 -15 15 10 18 18 12 12 6 11 14 2 15 42 9 -5 13 6 12 4 -41 6 9 12 5 -0 2 17
13 7 8 6 1 -1 0 -2 8 13 14 -1 25 26 -34 -15 -7 16 12 14 9 8 11 18 22 34 36 30 37 28 28 23 8 4 16 23 49 33 3 15 -1 6 10 9
27 28 36 17 28 -3 26 5 -17 13 5 5 12 11 -7 1 -0 1 7 9 5 6 8 6 3 -5 5 8 21 28 17 35 43 31 21 44 -4 18 -9 -3 5 11 10 7
17 9 18 12 6 38 31 6 22 -16 13 7 9 14 2 4 12 15 8 5 4 5 1 5 11 6 1 2 6 6 10 20 4 3 4 6 12 13 14 14 12 10 7 12
11 6 -3 1 4 9 1 22 17 14 9 9 16 12 -27 -25 10 23 10 -0 3 3 7 4 1 2 1 2 5 8 6 10 9 10 5 -1 8 5 9 11 11 7 12 14
11 -8 6 14 -3 -3 4 2 -8 -1 -8 3 11 4 0 14 21 13 4 10 1 8 1 1 0 -0 3 3 3 14 17 11 11 12 11 15 12 7 9 10 13 14 15 16
14 -5 31 0 2 13 14 8 19 -20 17 12 1 -2 1 -0 8 12 4 4 8 6 -2 4 1 1 2 3 9 11 13 12 13 12 15 14 14 15 15 16 16 17 18 19
37 11 21 28 38 20 14 6 4 18 7 3 -13 -29 -0 8 18 10 5 -0 11 7 -2 2 3 1 3 3 14 15 12 11 11 16 15 16 15 15 15 15 18 21 23 29
16 7 -15 -16 -34 1 23 19 23 18 1 16 -5 -2 8 7 14 3 -6 6 13 10 3 2 3 2 3 6 17 12 8 9 14 15 14 12 11 12 15 16 14 13 5 4
13 -1 5 5 1 -7 -4 -5 -1 9 3 -3 -5 4 21 20 6 8 -3 5 11 6 8 3 2 1 4 10 14 11 10 11 10 11 11 9 10 11 11 10 8 7 8 10
17 8 20 16 12 10 6 15 18 9 5 10 13 3 13 42 -12 16 18 7 3 12 4 6 5 3 8 12 13 14 14 12 9 9 8 12 15 16 20 6 8 6 8 10
14 16 17 7 24 29 38 10 4 9 13 10 5 12 13 20 20 6 -3 20 16 3 7 5 5 5 12 13 15 16 13 10 11 10 13 16 19 18 5 9 9 8 7 7
8 2 1 -1 14 11 -0 2 13 13 21 10 19 16 9 15 15 11 13 11 13 1 11 8 5 12 13 15 17 14 10 9 11 15 20 20 5 6 9 7 7 7 6 6
5 6 -3 -17 29 -5 10 3 5 -4 -4 -9 10 18 10 7 8 13 18 8 14 1 15 4 12 12 14 15 15 12 11 13 17 6 7 4 9 8 7 7 8 8 8 7
34 22 18 26 8 -4 5 30 30 23 13 15 22 15 11 28 11 -3 6 21 18 14 5 13 11 14 14 13 13 15 14 7 8 9 10 9 8 7 8 9 8 8 7 6
39 49 1 6 -2 17 8 -10 -2 27 -12 8 24 30 14 14 12 11 24 16 10 6 12 10 14 15 15 13 16 9 8 3 8 9 8 7 8 9 9 8 6 6 7 8
-36 6 5 29 11 17 9 10 3 7 10 14 19 16 25 17 14 15 14 10 9 14 9 14 16 15 13 11 8 6 7 7 9 8 8 8 8 7 7 7 8 9 10 10
19 -6 7 -26 8 -12 10 15 11 18 14 6 8 11 9 9 11 11 12 17 10 11 18 17 14 15 9 8 8 8 7 9 10 9 6 6 7 7 8 9 9 9 9 9
14 9 3 16 18 -2 5 3 -1 4 22 14 12 8 10 16 15 13 12 14 21 19 17 14 15 8 10 7 7 8 8 8 6 5 6 6 7 8 9 9 8 8 8 8
6 31 8 1 -5 -6 -0 21 20 9 -1 10 8 8 16 15 18 16 21 24 15 14 15 14 8 11 6 7 8 7 6 5 5 5 6 6 7 8 7 7 8 8 8 8
11 8 11 10 27 23 24 17 1 19 16 11 6 14 17 19 17 23 11 14 13 14 14 9 10 7 7 7 7 5 5 5 5 5 6 7 7 7 7 8 9 9 9 8
Height
3096 3095 3096 3101 3101 3100 3101 3099 3099 3100 3104 3098 3097 3096 3097 3092 3091 3092 3090 3088 3086 3083 3080 3079 3078 3077 3074 3072 3070 3069 3068 3069 3072 3075 3077 3079 3081 3083 3084 3085 3087 3087 3088 3088
3092 3089 3094 3094 3095 3096 3096 3096 3096 3096 3098 3094 3091 3090 3087 3086 3085 3085 3084 3083 3081 3078 3076 3075 3073 3071 3070 3068 3066 3064 3064 3064 3065 3067 3070 3072 3073 3075 3077 3078 3079 3079 3079 3078
3085 3088 3089 3089 3091 3093 3092 3093 3092 3094 3093 3090 3087 3085 3084 3083 3080 3080 3080 3078 3076 3073 3070 3068 3066 3064 3061 3061 3061 3059 3059 3061 3061 3062 3063 3065 3067 3069 3069 3072 3071 3071 3070 3069
3081 3083 3083 3085 3087 3089 3089 3090 3090 3089 3090 3089 3087 3085 3080 3078 3076 3075 3074 3073 3071 3068 3065 3061 3059 3059 3058 3056 3056 3056 3056 3056 3057 3058 3057 3060 3061 3062 3062 3063 3064 3063 3062 3061
3079 3078 3078 3080 3083 3086 3086 3087 3087 3087 3086 3084 3084 3086 3069 3072 3071 3069 3070 3069 3066 3063 3060 3057 3055 3055 3054 3053 3053 3052 3050 3051 3051 3050 3051 3053 3051 3054 3056 3055 3055 3056 3056 3052
3073 3074 3077 3078 3080 3083 3083 3085 3086 3084 3085 3080 3075 3078 3065 3066 3066 3065 3064 3062 3059 3057 3055 3053 3051 3050 3049 3048 3046 3045 3045 3043 3041 3042 3044 3044 3043 3044 3049 3049 3048 3049 3047 3045
3069 3068 3073 3074 3076 3079 3080 3083 3085 3083 3082 3075 3072 3072 3063 3059 3060 3062 3061 3058 3056 3054 3053 3051 3048 3047 3045 3043 3041 3039 3039 3038 3037 3034 3035 3036 3034 3037 3037 3039 3040 3040 3038 3035
3063 3065 3065 3068 3068 3071 3073 3078 3080 3074 3074 3072 3071 3065 3057 3057 3056 3057 3059 3057 3055 3054 3053 3051 3048 3046 3043 3040 3038 3034 3033 3031 3031 3030 3031 3030 3029 3030 3031 3031 3033 3031 3028 3027
3060 3061 3061 3064 3064 3066 3068 3071 3073 3073 3072 3071 3065 3059 3053 3052 3053 3053 3055 3054 3052 3052 3051 3050 3048 3046 3043 3041 3039 3036 3032 3030 3028 3028 3027 3029 3029 3027 3025 3025 3023 3019 3017 3016
3057 3059 3059 3060 3061 3062 3063 3066 3068 3069 3066 3062 3055 3054 3048 3047 3049 3049 3049 3049 3049 3049 3049 3048 3046 3044 3042 3039 3037 3034 3031 3028 3026 3023 3023 3023 3022 3020 3018 3016 3013 3011 3009 3007
3052 3055 3056 3055 3054 3055 3058 3058 3061 3062 3061 3055 3050 3044 3043 3044 3044 3045 3045 3045 3045 3046 3047 3047 3045 3043 3040 3037 3034 3031 3027 3024 3022 3019 3018 3017 3016 3014 3011 3009 3008 3006 3003 3000
3047 3048 3047 3047 3048 3049 3051 3051 3052 3054 3055 3052 3050 3039 3039 3041 3041 3042 3042 3041 3043 3044 3044 3044 3042 3040 3037 3034 3030 3027 3023 3021 3018 3015 3014 3011 3009 3007 3005 3004 3002 3000 2997 2994
3043 3041 3042 3042 3043 3041 3041 3042 3044 3045 3045 3042 3046 3035 3033 3035 3036 3037 3038 3038 3039 3040 3040 3040 3039 3036 3033 3030 3027 3023 3020 3017 3014 3012 3009 3008 3005 3004 3002 3000 2997 2994 2992 2989
3038 3036 3036 3035 3035 3036 3036 3036 3038 3038 3037 3036 3031 3032 3028 3031 3031 3033 3034 3034 3034 3035 3036 3035 3034 3032 3030 3026 3023 3020 3017 3014 3012 3009 3007 3005 3003 3001 3000 2998 2996 2994 2991 2988
3031 3029 3031 3028 3029 3030 3029 3030 3031 3029 3029 3030 3021 3024 3024 3024 3025 3026 3030 3029 3029 3030 3031 3031 3030 3028 3025 3022 3019 3016 3013 3011 3008 3007 3006 3003 3000 2998 2997 2996 2995 2993 2990 2988
3021 3021 3023 3020 3020 3022 3020 3020 3020 3021 3020 3018 3018 3012 3016 3018 3019 3019 3021 3023 3023 3025 3026 3025 3025 3023 3021 3018 3016 3013 3011 3009 3007 3006 3004 3002 3000 2998 2996 2995 2994 2993 2991 2988
3014 3014 3014 3012 3014 3014 3012 3006 3009 3010 3010 3009 3008 3006 3008 3011 3011 3013 3015 3016 3017 3019 3020 3020 3020 3018 3016 3014 3012 3011 3010 3008 3007 3005 3004 3001 2999 2997 2996 2997 2995 2993 2991 2987
3005 3007 3006 3004 3009 3003 2997 2999 3000 3000 2999 2999 3000 3000 3002 3004 3006 3007 3009 3010 3012 3013 3015 3015 3015 3013 3012 3010 3010 3009 3008 3007 3006 3005 3003 3001 2999 2999 2997 2996 2995 2993 2990 2986
2996 2999 3000 3000 2997 2995 2992 2992 2993 2992 2991 2991 2992 2992 2994 2998 2999 3000 3002 3004 3006 3008 3009 3010 3010 3009 3008 3008 3007 3007 3006 3006 3006 3005 3003 3002 3000 2999 2997 2995 2993 2991 2988 2985
2982 2987 2992 2989 2984 2985 2984 2986 2987 2986 2981 2984 2983 2985 2988 2991 2991 2994 2996 2998 3000 3003 3004 3005 3005 3005 3005 3005 3006 3006 3006 3006 3006 3005 3004 3002 3001 2999 2997 2995 2992 2989 2987 2984
2974 2975 2976 2972 2973 2977 2977 2980 2981 2983 2980 2978 2978 2980 2982 2984 2987 2989 2990 2992 2995 2998 2999 3000 3001 3002 3003 3004 3005 3005 3005 3005 3005 3004 3003 3001 2999 2998 2996 2993 2991 2989 2985 2982
2969 2971 2970 2971 2975 2975 2969 2972 2976 2975 2973 2975 2975 2976 2977 2979 2981 2983 2985 2988 2990 2993 2995 2996 2998 3000 3002 3003 3004 3005 3006 3006 3005 3003 3002 3001 2999 2997 2995 2993 2991 2989 2986 2982
2965 2964 2964 2967 2965 2965 2966 2968 2969 2970 2971 2972 2973 2973 2974 2975 2977 2979 2981 2983 2986 2988 2990 2993 2996 2998 3000 3002 3003 3004 3004 3005 3004 3003 3001 3000 2999 2997 2995 2993 2990 2987 2984 2981
2956 2957 2959 2961 2960 2962 2963 2965 2966 2967 2967 2968 2969 2970 2971 2971 2973 2974 2976 2978 2981 2984 2987 2990 2993 2996 2998 3000 3001 3002 3003 3003 3002 3001 3000 2999 2998 2996 2994 2991 2987 2984 2980 2977
2953 2954 2954 2954 2955 2957 2959 2960 2962 2962 2963 2965 2966 2966 2967 2967 2968 2970 2972 2975 2978 2981 2985 2989 2992 2994 2996 2998 2999 3000 3001 3001 3000 2999 2999 2997 2996 2994 2990 2986 2982 2979 2975 2972
2947 2948 2949 2950 2952 2954 2955 2956 2957 2957 2958 2960 2962 2962 2963 2964 2966 2968 2971 2974 2977 2981 2984 2988 2991 2993 2995 2996 2998 2999 2999 2999 2999 2998 2997 2995 2993 2990 2986 2982 2980 2977 2973 2968